| time (UTC) | temp C | wind direction | speed KPH | gust KPH | rain 1hr cm | rain 24hr cm | rain mn cm | humidity % | barometer mb |
| 20260504213756 | 22 | 217 | 3.2 | 12.9 | 0.00 | 0.00 | 0.00 | 35 | 1009.3 |
| 20260504213751 | 22 | 150 | 3.2 | 11.3 | 0.00 | 0.00 | 0.00 | 34 | 1009.3 |
| 20260504212749 | 22 | 187 | 4.8 | 16.1 | 0.00 | 0.00 | 0.00 | 33 | 1009.4 |
| 20260504212250 | 22 | 192 | 4.8 | 16.1 | 0.00 | 0.00 | 0.00 | 33 | 1009.3 |
| 20260504211748 | 22 | 152 | 4.8 | 9.7 | 0.00 | 0.00 | 0.00 | 34 | 1009.3 |
| 20260504211247 | 22 | 162 | 4.8 | 14.5 | 0.00 | 0.00 | 0.00 | 34 | 1009.3 |
| 20260504210747 | 22 | 186 | 4.8 | 14.5 | 0.00 | 0.00 | 0.00 | 33 | 1009.3 |
| 20260504210247 | 22 | 192 | 4.8 | 16.1 | 0.00 | 0.00 | 0.00 | 33 | 1009.5 |
| 20260504205748 | 22 | 198 | 6.4 | 16.1 | 0.00 | 0.00 | 0.00 | 35 | 1009.5 |
| 20260504205248 | 22 | 139 | 4.8 | 12.9 | 0.00 | 0.00 | 0.00 | 34 | 1009.5 |
| 20260504204743 | 22 | 182 | 4.8 | 12.9 | 0.00 | 0.00 | 0.00 | 32 | 1009.4 |
| 20260504204235 | 23 | 180 | 4.8 | 14.5 | 0.00 | 0.00 | 0.00 | 33 | 1009.4 |
| 20260504203730 | 23 | 139 | 4.8 | 22.5 | 0.00 | 0.00 | 0.00 | 34 | 1009.5 |
| 20260504203224 | 23 | 227 | 4.8 | 22.5 | 0.00 | 0.00 | 0.00 | 32 | 1009.4 |
| 20260504202719 | 23 | 193 | 6.4 | 25.7 | 0.00 | 0.00 | 0.00 | 34 | 1009.5 |
| 20260504202445 | 23 | 196 | 6.4 | 35.4 | 0.00 | 0.00 | 0.00 | 31 | 1009.6 |
| 20260504201705 | 23 | 215 | 8.0 | 35.4 | 0.00 | 0.00 | 0.00 | 31 | 1009.4 |
| 20260504201201 | 23 | 158 | 4.8 | 25.7 | 0.00 | 0.00 | 0.00 | 31 | 1009.5 |
| 20260504200924 | 23 | 200 | 3.2 | 14.5 | 0.00 | 0.00 | 0.00 | 33 | 1009.5 |
| 20260504200147 | 23 | 179 | 4.8 | 20.9 | 0.00 | 0.00 | 0.00 | 34 | 1009.5 |
| 20260504195640 | 23 | 150 | 6.4 | 20.9 | 0.00 | 0.00 | 0.00 | 32 | 1009.6 |
| 20260504195142 | 23 | 203 | 4.8 | 20.9 | 0.00 | 0.00 | 0.00 | 32 | 1009.5 |
| 20260504194641 | 23 | 188 | 3.2 | 14.5 | 0.00 | 0.00 | 0.00 | 31 | 1009.5 |
| 20260504194138 | 23 | 198 | 4.8 | 19.3 | 0.00 | 0.00 | 0.00 | 32 | 1009.5 |
| 20260504193640 | 23 | 159 | 4.8 | 19.3 | 0.00 | 0.00 | 0.00 | 32 | 1009.6 |
| 20260504193137 | 22 | 124 | 4.8 | 17.7 | 0.00 | 0.00 | 0.00 | 36 | 1009.7 |
| 20260504192908 | 22 | 181 | 6.4 | 17.7 | 0.00 | 0.00 | 0.00 | 31 | 1009.6 |
| 20260504192137 | 22 | 205 | 4.8 | 16.1 | 0.00 | 0.00 | 0.00 | 32 | 1009.7 |
| 20260504191637 | 22 | 246 | 6.4 | 19.3 | 0.00 | 0.00 | 0.00 | 35 | 1009.7 |
| 20260504191137 | 22 | 180 | 8.0 | 24.1 | 0.00 | 0.00 | 0.00 | 32 | 1009.8 |
| 20260504190637 | 22 | 256 | 8.0 | 24.1 | 0.00 | 0.00 | 0.00 | 31 | 1009.7 |
| 20260504190138 | 22 | 226 | 4.8 | 24.1 | 0.00 | 0.00 | 0.00 | 33 | 1009.9 |
| 20260504185633 | 22 | 182 | 4.8 | 11.3 | 0.00 | 0.00 | 0.00 | 32 | 1009.9 |
| 20260504185133 | 22 | 164 | 4.8 | 17.7 | 0.00 | 0.00 | 0.00 | 32 | 1010.0 |
| 20260504184905 | 22 | 194 | 4.8 | 17.7 | 0.00 | 0.00 | 0.00 | 33 | 1010.1 |
| 20260504184750 | 22 | 146 | 6.4 | 19.3 | 0.00 | 0.00 | 0.00 | 30 | 1010.3 |
| 20260504183634 | 22 | 165 | 6.4 | 19.3 | 0.00 | 0.00 | 0.00 | 34 | 1010.5 |
| 20260504183133 | 22 | 216 | 6.4 | 20.9 | 0.00 | 0.00 | 0.00 | 34 | 1010.6 |
| 20260504182632 | 22 | 211 | 6.4 | 20.9 | 0.00 | 0.00 | 0.00 | 33 | 1010.5 |
| 20260504182404 | 22 | 258 | 6.4 | 16.1 | 0.00 | 0.00 | 0.00 | 35 | 1010.7 |
| 20260504181634 | 22 | 228 | 6.4 | 17.7 | 0.00 | 0.00 | 0.00 | 34 | 1010.9 |
| 20260504181406 | 22 | 184 | 6.4 | 17.7 | 0.00 | 0.00 | 0.00 | 32 | 1010.9 |
| 20260504180633 | 22 | 213 | 6.4 | 17.7 | 0.00 | 0.00 | 0.00 | 33 | 1010.9 |
| 20260504180133 | 22 | 193 | 6.4 | 19.3 | 0.00 | 0.00 | 0.00 | 32 | 1010.9 |
| 20260504175632 | 22 | 157 | 6.4 | 19.3 | 0.00 | 0.00 | 0.00 | 34 | 1011.1 |
| 20260504175134 | 22 | 223 | 6.4 | 20.9 | 0.00 | 0.00 | 0.00 | 35 | 1011.3 |
| 20260504174632 | 22 | 225 | 6.4 | 20.9 | 0.00 | 0.00 | 0.00 | 33 | 1011.4 |
| 20260504174132 | 22 | 179 | 6.4 | 20.9 | 0.00 | 0.00 | 0.00 | 34 | 1011.3 |
| 20260504173632 | 22 | 231 | 6.4 | 20.9 | 0.00 | 0.00 | 0.00 | 32 | 1011.4 |
| 20260504173133 | 22 | 157 | 4.8 | 27.4 | 0.00 | 0.00 | 0.00 | 38 | 1011.3 |
| 20260504172633 | 22 | 162 | 4.8 | 27.4 | 0.00 | 0.00 | 0.00 | 32 | 1011.5 |
| 20260504172628 | 22 | 183 | 4.8 | 17.7 | 0.00 | 0.00 | 0.00 | 37 | 1011.5 |
| 20260504171627 | 22 | 249 | 6.4 | 20.9 | 0.00 | 0.00 | 0.00 | 34 | 1011.6 |
| 20260504171127 | 22 | 184 | 4.8 | 20.9 | 0.00 | 0.00 | 0.00 | 35 | 1011.7 |
| 20260504170628 | 22 | 138 | 4.8 | 11.3 | 0.00 | 0.00 | 0.00 | 37 | 1011.8 |
| 20260504170124 | 21 | 171 | 6.4 | 24.1 | 0.00 | 0.00 | 0.00 | 33 | 1011.8 |
| 20260504160120 | 21 | 178 | 4.8 | 16.1 | 0.00 | 0.00 | 0.00 | 38 | 1012.6 |
| 20260504151021 | 18 | 163 | 6.4 | 25.7 | 0.00 | 0.00 | 0.00 | 45 | 1013.1 |
| 20260504150516 | 17 | 202 | 4.8 | 25.7 | 0.00 | 0.00 | 0.00 | 45 | 1012.9 |
| 20260504140925 | 15 | 235 | 4.8 | 17.7 | 0.00 | 0.00 | 0.00 | 56 | 1013.2 |
| 20260504140423 | 14 | 177 | 6.4 | 20.9 | 0.00 | 0.00 | 0.00 | 56 | 1013.3 |
| 20260504130653 | 12 | 224 | 4.8 | 22.5 | 0.00 | 0.00 | 0.00 | 66 | 1013.7 |
| 20260504120109 | 7 | 206 | 0.0 | 8.0 | 0.00 | 0.00 | 0.00 | 89 | 1014.0 |
| 20260504110331 | 3 | 230 | 0.0 | 1.6 | 0.00 | 0.00 | 0.00 | 84 | 1014.3 |
| 20260504100332 | 3 | 230 | 0.0 | 0.0 | 0.00 | 0.00 | 0.00 | 78 | 1014.1 |
| 20260504081647 | 4 | 230 | 0.0 | 0.0 | 0.00 | 0.00 | 0.00 | 74 | 1014.1 |
| 20260504081412 | 4 | 230 | 0.0 | 0.0 | 0.00 | 0.00 | 0.00 | 74 | 1014.0 |
| 20260504080906 | 4 | 230 | 0.0 | 0.0 | 0.00 | 0.00 | 0.00 | 73 | 1014.0 |
| 20260504080129 | 5 | 230 | 0.0 | 0.0 | 0.00 | 0.00 | 0.00 | 73 | 1014.1 |
| 20260504050300 | 6 | 230 | 0.0 | 0.0 | 0.00 | 0.00 | 0.00 | 66 | 1013.7 |
| 20260504050025 | 6 | 230 | 0.0 | 0.0 | 0.00 | 0.00 | 0.00 | 66 | 1013.7 |
| 20260504045248 | 6 | 230 | 0.0 | 0.0 | 0.00 | 0.00 | 0.00 | 66 | 1013.7 |
| 20260504044742 | 7 | 230 | 0.0 | 0.0 | 0.00 | 0.00 | 0.00 | 65 | 1013.7 |
| 20260504044235 | 7 | 230 | 0.0 | 0.0 | 0.00 | 0.00 | 0.00 | 64 | 1013.6 |
| 20260504043730 | 7 | 230 | 0.0 | 1.6 | 0.00 | 0.00 | 0.00 | 63 | 1013.6 |
| 20260504043223 | 7 | 230 | 0.0 | 1.6 | 0.00 | 0.00 | 0.00 | 63 | 1013.4 |
| 20260504042724 | 7 | 230 | 0.0 | 0.0 | 0.00 | 0.00 | 0.00 | 62 | 1013.5 |
| 20260504042221 | 7 | 230 | 0.0 | 0.0 | 0.00 | 0.00 | 0.00 | 62 | 1013.4 |
| 20260504041725 | 7 | 230 | 0.0 | 3.2 | 0.00 | 0.00 | 0.00 | 61 | 1013.3 |
| 20260504041721 | 7 | 230 | 0.0 | 3.2 | 0.00 | 0.00 | 0.00 | 62 | 1013.4 |
| 20260504040716 | 7 | 202 | 0.0 | 1.6 | 0.00 | 0.00 | 0.00 | 60 | 1013.2 |
| 20260504040214 | 7 | 202 | 0.0 | 1.6 | 0.00 | 0.00 | 0.00 | 60 | 1013.2 |
| 20260504035713 | 8 | 202 | 0.0 | 0.0 | 0.00 | 0.00 | 0.00 | 59 | 1013.2 |
| 20260504035210 | 8 | 202 | 0.0 | 0.0 | 0.00 | 0.00 | 0.00 | 59 | 1013.2 |
| 20260504034939 | 8 | 202 | 0.0 | 0.0 | 0.00 | 0.00 | 0.00 | 57 | 1013.3 |
| 20260504034209 | 8 | 202 | 0.0 | 3.2 | 0.00 | 0.00 | 0.00 | 61 | 1013.2 |
| 20260504033939 | 8 | 202 | 0.0 | 3.2 | 0.00 | 0.00 | 0.00 | 57 | 1013.2 |
| 20260504033208 | 8 | 208 | 0.0 | 1.6 | 0.00 | 0.00 | 0.00 | 56 | 1013.1 |
| 20260504032708 | 8 | 213 | 0.0 | 3.2 | 0.00 | 0.00 | 0.00 | 56 | 1013.1 |
| 20260504032209 | 8 | 216 | 1.6 | 3.2 | 0.00 | 0.00 | 0.00 | 52 | 1013.2 |
| 20260504031934 | 8 | 209 | 1.6 | 6.4 | 0.00 | 0.00 | 0.00 | 51 | 1013.1 |
| 20260504031203 | 8 | 211 | 1.6 | 6.4 | 0.00 | 0.00 | 0.00 | 51 | 1013.0 |
| 20260504030704 | 8 | 223 | 1.6 | 4.8 | 0.00 | 0.00 | 0.00 | 51 | 1013.0 |
| 20260504030204 | 9 | 197 | 0.0 | 3.2 | 0.00 | 0.00 | 0.00 | 52 | 1013.0 |
| 20260504025705 | 9 | 229 | 0.0 | 3.2 | 0.00 | 0.00 | 0.00 | 51 | 1013.0 |
| 20260504025204 | 9 | 233 | 1.6 | 4.8 | 0.00 | 0.00 | 0.00 | 50 | 1013.0 |
| 20260504024705 | 9 | 219 | 0.0 | 4.8 | 0.00 | 0.00 | 0.00 | 49 | 1013.0 |
| 20260504024205 | 9 | 258 | 0.0 | 3.2 | 0.00 | 0.00 | 0.00 | 48 | 1013.1 |
| 20260504023705 | 9 | 213 | 1.6 | 4.8 | 0.00 | 0.00 | 0.00 | 48 | 1013.1 |
| 20260504023203 | 9 | 205 | 0.0 | 4.8 | 0.00 | 0.00 | 0.00 | 47 | 1013.0 |
| 20260504022935 | 9 | 213 | 0.0 | 1.6 | 0.00 | 0.00 | 0.00 | 47 | 1013.0 |
| 20260504022204 | 10 | 213 | 0.0 | 1.6 | 0.00 | 0.00 | 0.00 | 47 | 1013.1 |
| 20260504021705 | 10 | 188 | 0.0 | 1.6 | 0.00 | 0.00 | 0.00 | 47 | 1012.9 |
| 20260504021201 | 10 | 226 | 0.0 | 4.8 | 0.00 | 0.00 | 0.00 | 47 | 1013.0 |
| 20260504020931 | 10 | 226 | 0.0 | 8.0 | 0.00 | 0.00 | 0.00 | 46 | 1012.9 |
| 20260504020159 | 10 | 204 | 0.0 | 8.0 | 0.00 | 0.00 | 0.00 | 46 | 1013.0 |
| 20260504015659 | 10 | 208 | 0.0 | 3.2 | 0.00 | 0.00 | 0.00 | 46 | 1013.0 |
| 20260504015159 | 10 | 209 | 1.6 | 8.0 | 0.00 | 0.00 | 0.00 | 46 | 1013.0 |
| 20260504014656 | 10 | 189 | 1.6 | 8.0 | 0.00 | 0.00 | 0.00 | 47 | 1013.0 |
| 20260504014154 | 10 | 201 | 1.6 | 8.0 | 0.00 | 0.00 | 0.00 | 45 | 1013.0 |
| 20260504013654 | 10 | 195 | 1.6 | 8.0 | 0.00 | 0.00 | 0.00 | 45 | 1012.9 |
| 20260504013154 | 10 | 193 | 1.6 | 6.4 | 0.00 | 0.00 | 0.00 | 45 | 1012.9 |
| 20260504012647 | 10 | 191 | 1.6 | 8.0 | 0.00 | 0.00 | 0.00 | 45 | 1012.8 |
| 20260504012142 | 10 | 193 | 1.6 | 8.0 | 0.00 | 0.00 | 0.00 | 45 | 1012.8 |
| 20260504011636 | 10 | 221 | 1.6 | 8.0 | 0.00 | 0.00 | 0.00 | 45 | 1012.7 |
| 20260504011129 | 10 | 194 | 1.6 | 6.4 | 0.00 | 0.00 | 0.00 | 44 | 1012.6 |
| 20260504010624 | 11 | 194 | 1.6 | 9.7 | 0.00 | 0.00 | 0.00 | 43 | 1012.5 |
| 20260504010118 | 11 | 208 | 1.6 | 9.7 | 0.00 | 0.00 | 0.00 | 43 | 1012.4 |
| 20260504005612 | 11 | 225 | 0.0 | 6.4 | 0.00 | 0.00 | 0.00 | 43 | 1012.4 |
| 20260504005105 | 11 | 198 | 0.0 | 4.8 | 0.00 | 0.00 | 0.00 | 42 | 1012.3 |
| 20260504004601 | 11 | 200 | 0.0 | 4.8 | 0.00 | 0.00 | 0.00 | 42 | 1012.3 |
| 20260504004054 | 11 | 202 | 1.6 | 4.8 | 0.00 | 0.00 | 0.00 | 42 | 1012.2 |
| 20260504003547 | 11 | 201 | 1.6 | 4.8 | 0.00 | 0.00 | 0.00 | 41 | 1012.2 |
| 20260504003040 | 11 | 199 | 0.0 | 4.8 | 0.00 | 0.00 | 0.00 | 40 | 1012.2 |
| 20260504002806 | 12 | 192 | 1.6 | 6.4 | 0.00 | 0.00 | 0.00 | 40 | 1012.1 |
| 20260504002029 | 12 | 212 | 1.6 | 6.4 | 0.00 | 0.00 | 0.00 | 39 | 1012.0 |
| 20260504001521 | 12 | 210 | 1.6 | 6.4 | 0.00 | 0.00 | 0.00 | 39 | 1012.0 |
| 20260504001015 | 12 | 198 | 1.6 | 11.3 | 0.00 | 0.00 | 0.00 | 39 | 1011.9 |
| 20260504000510 | 12 | 206 | 3.2 | 9.7 | 0.00 | 0.00 | 0.00 | 39 | 1011.8 |
| 20260504000004 | 12 | 179 | 4.8 | 12.9 | 0.00 | 0.00 | 0.00 | 37 | 1011.7 |
| 20260503235729 | 12 | 173 | 3.2 | 12.9 | 0.00 | 0.00 | 0.00 | 37 | 1011.7 |
| 20260503234953 | 13 | 172 | 3.2 | 9.7 | 0.00 | 0.00 | 0.00 | 36 | 1011.8 |
| 20260503234717 | 13 | 208 | 3.2 | 8.0 | 0.00 | 0.00 | 0.00 | 37 | 1011.6 |
| 20260503233940 | 13 | 217 | 3.2 | 9.7 | 0.00 | 0.00 | 0.00 | 36 | 1011.6 |
| 20260503233434 | 13 | 181 | 3.2 | 9.7 | 0.00 | 0.00 | 0.00 | 35 | 1011.5 |
| 20260503232929 | 13 | 218 | 4.8 | 11.3 | 0.00 | 0.00 | 0.00 | 35 | 1011.4 |
| 20260503232422 | 13 | 221 | 4.8 | 12.9 | 0.00 | 0.00 | 0.00 | 35 | 1011.5 |
| 20260503231917 | 13 | 242 | 6.4 | 12.9 | 0.00 | 0.00 | 0.00 | 33 | 1011.4 |
| 20260503231640 | 13 | 184 | 6.4 | 24.1 | 0.00 | 0.00 | 0.00 | 35 | 1011.5 |
| 20260503230904 | 14 | 222 | 6.4 | 24.1 | 0.00 | 0.00 | 0.00 | 35 | 1011.3 |
| 20260503230358 | 14 | 179 | 6.4 | 22.5 | 0.00 | 0.00 | 0.00 | 33 | 1011.3 |
| 20260503225852 | 14 | 231 | 6.4 | 22.5 | 0.00 | 0.00 | 0.00 | 32 | 1011.2 |
| 20260503225345 | 15 | 208 | 4.8 | 17.7 | 0.00 | 0.00 | 0.00 | 32 | 1011.2 |
| 20260503224839 | 15 | 300 | 4.8 | 14.5 | 0.00 | 0.00 | 0.00 | 32 | 1011.2 |
| 20260503224606 | 15 | 254 | 4.8 | 16.1 | 0.00 | 0.00 | 0.00 | 32 | 1011.2 |
| 20260503224059 | 15 | 260 | 4.8 | 16.1 | 0.00 | 0.00 | 0.00 | 32 | 1011.1 |
| 20260503223553 | 15 | 339 | 6.4 | 19.3 | 0.00 | 0.00 | 0.00 | 32 | 1011.0 |
| 20260503222816 | 15 | 233 | 4.8 | 19.3 | 0.00 | 0.00 | 0.00 | 31 | 1011.0 |
| 20260503222310 | 15 | 235 | 4.8 | 16.1 | 0.00 | 0.00 | 0.00 | 31 | 1011.0 |
| 20260503221803 | 15 | 217 | 4.8 | 16.1 | 0.00 | 0.00 | 0.00 | 29 | 1011.0 |
| 20260503221257 | 15 | 173 | 6.4 | 19.3 | 0.00 | 0.00 | 0.00 | 33 | 1011.0 |
| 20260503220752 | 15 | 256 | 8.0 | 22.5 | 0.00 | 0.00 | 0.00 | 30 | 1011.1 |
| 20260503220246 | 15 | 173 | 6.4 | 19.3 | 0.00 | 0.00 | 0.00 | 30 | 1011.2 |
| 20260503220010 | 15 | 253 | 4.8 | 19.3 | 0.00 | 0.00 | 0.00 | 32 | 1011.1 |
| 20260503215234 | 15 | 333 | 4.8 | 19.3 | 0.00 | 0.00 | 0.00 | 30 | 1011.0 |
| 20260503214728 | 15 | 285 | 6.4 | 22.5 | 0.00 | 0.00 | 0.00 | 32 | 1011.1 |
| 20260503214222 | 15 | 258 | 6.4 | 22.5 | 0.00 | 0.00 | 0.00 | 30 | 1011.2 |